"Pseudo-MPEC" for CEQXMN2

Created 2026 Sep 2 20:35:04 UT using Find_Orb

Click here for an explanation of pseudo-MPECs

 
 Astrometry: 
     CEQXMN2 0C2026 07 19.57457623 06 35.986-18 39 25.50   ~92B5 21.22wXNEOCPF51
     CEQXMN2 0C2026 07 19.58501523 06 36.343-18 39 25.82   ~92B5 21.71wXNEOCPF51
     CEQXMN2 0C2026 07 19.59546523 06 36.721-18 39 25.41   ~92B5 21.87wXNEOCPF51
     CEQXMN2 0C2026 08 30.27531223 05 18.052-19 28 20.93   ~92Io 19.42rUNEOCPI41
     CEQXMN2 0C2026 08 30.36996723 05 13.783-19 28 19.69   ~92Io 19.43gUNEOCPI41
     CEQXMN2 0C2026 08 31.30426823 04 37.744-19 28 01.12   ~92Io 19.36rUNEOCPI41
     CEQXMN2 0C2026 08 31.32889423 04 36.632-19 28 00.39   ~92Io 18.79iUNEOCPI41
     CEQXMN2 0C2026 09 01.31480623 03 57.317-19 27 26.77   ~92Io 20.03gUNEOCPI41
     CEQXMN2 0C2026 09 01.38120623 03 54.281-19 27 24.10   ~92Io 19.69rUNEOCPI41
     CEQXMN2 0C2026 09 01.42207623 03 52.398-19 27 22.29   ~92Io 19.99iUNEOCPI41
     CEQXMN2*1C2026 09 02.26293023 03 18.752-19 26 42.18   ~9275 19.57GVNEOCPG96
     CEQXMN2 1C2026 09 02.26830323 03 18.522-19 26 41.78   ~9275 19.55GVNEOCPG96
     CEQXMN2 1C2026 09 02.27368623 03 18.263-19 26 41.64   ~9275 19.42GVNEOCPG96
     CEQXMN2 1C2026 09 02.27906523 03 18.022-19 26 41.39   ~9275 19.48GVNEOCPG96
     CEQXMN2 0C2026 09 02.29406323 03 17.425-19 26 40.71   ~92Io 19.49rUNEOCPI41
     CEQXMN2 0C2026 09 02.32985523 03 15.689-19 26 38.19   ~92Io 20.27iUNEOCPI41
     CEQXMN2 1C2026 09 02.33034523 03 15.646-19 26 39.05   ~928o 19.92GVNEOCPG96
     CEQXMN2 1C2026 09 02.33829523 03 15.260-19 26 37.79   ~928o 20.15GVNEOCPG96
     CEQXMN2 1C2026 09 02.34613523 03 14.929-19 26 37.79   ~928o 19.83GVNEOCPG96
     CEQXMN2 1C2026 09 02.35393223 03 14.576-19 26 37.32   ~928o 19.75GVNEOCPG96
     CEQXMN2 0C2026 09 02.36545323 03 14.144-19 26 36.81   ~92Io 19.22rUNEOCPI41
     CEQXMN2 0C2026 09 02.37687323 03 13.585-19 26 35.88   ~92Io 19.62gUNEOCPI41

Station data:
(F51) Pan-STARRS 1, Haleakala  (N20.707234 W156.255910)  US/Hawaii.
   Observers J. Herman, T. Lowe, P. Minguez, A. Schultz, I. Smith. Measurers
   K. Chambers, T. de Boer, J. Fairlamb, H. Gao, M. Huber, C.-C. Lin, E.
   Magnier, Y. Ramanjooloo, R. Wainscoat, R. Weryk. 1.8-m Ritchey-Chrétien +
   CCD.
(G96) Mt. Lemmon Survey  (N32.442729 W110.788720)
   US/Arizona.  Observer E. J. Christensen. Measurers T. Beuden, V. F.
   Carvajal, D. Fay, J. B. Fazekas, D. C. Fuls, A. R. Gibbs, A. D. Grauer, H.
   Gröller, J. K. Hogan, R. A. Kowalski, S. M. Larson, G. J. Leonard, D.
   Rankin, R. L. Seaman, F. C. Shelly, K. W. Wierzchoś. 1.5-m reflector + 10K
   CCD.
(I41) Palomar Mountain--ZTF  (N33.357336 W116.859780)  US/California.
   Observers B. T. Bolin, Z. T. F. Collaboration. Measurers B. T. Bolin,
   Z.-Y. Lin, F. J. Masci. 1.2-m f/2.4 Schmidt.

Orbital elements:  CEQXMN2
   Perihelion 2026 Oct 30.175399 +/- 0.386 TT =  4:12:34.5 (JD 2461343.675399)
Epoch 2026 Sep  2.0 TT = JDT 2461285.5   Earth MOID: 0.5836      AutoNEOCP
M 346.696725028 +/- 0.06            (J2000 ecliptic)
n   0.228675266 +/- 0.00048         Peri.  344.723586 +/- 0.31
a   2.648438664 +/- 0.0037          Node    27.399073 +/- 0.07
e   0.40248250 +/- 0.00121          Incl.    6.537266 +/- 0.008
P   4.31008                H 19.06  G  0.15   U  7.6
q 1.582488425 +/- 0.00109    Q 3.714388902 +/- 0.00838
From 22 observations 2026 July 19-Sept. 2; mean residual 0".39
Residuals in arcseconds: 
260719 F51  .01-  .02-    260901 I41  .37+  .16+    260902 G96  .10-  .45-    
260719 F51  .10-  .24-    260901 I41  .22-  .09-    260902 G96  .37-  .36+    
260719 F51  .11+  .26+    260902 G96  .12-  .14-    260902 G96  .07+  .10-    
260830 I41  .84+  .06-    260902 G96  .11+  .01+    260902 G96  .17+  .09-    
260830 I41  1.5-  .21+    260902 G96  .06-  .10-    260902 I41  .39+  .07-    
260831 I41  .48+  .35-    260902 G96  .03+  .11-    260902 I41  .08-  .17+    
260831 I41  .21+  .18-    260902 I41  .23+  .12-    
260901 I41  .73+  .28+    260902 I41  1.0-  .57+    

Ephemerides (geocentric):
Date (UTC) HH   RA             Dec           delta  r     elong  mag " sig PA
---- --------  ------------   ------------  ------ ------ -----  --- --------
2026 09 02 21  23 02 53.162   -19 25 56.04  .65758 1.6573 167.7 19.8 .177   7
2026 09 02 22  23 02 51.429   -19 25 53.40  .65748 1.6572 167.7 19.8 .183   8
2026 09 02 23  23 02 49.695   -19 25 50.74  .65739 1.6571 167.7 19.8 .189   8
2026 09 03 00  23 02 47.960   -19 25 48.05  .65729 1.6570 167.7 19.8 .195   9
2026 09 03 01  23 02 46.224   -19 25 45.33  .65719 1.6569 167.7 19.8 .201  10
2026 09 03 02  23 02 44.486   -19 25 42.59  .65710 1.6567 167.7 19.8 .206  10
2026 09 03 03  23 02 42.748   -19 25 39.82  .65701 1.6566 167.7 19.8 .212  11
2026 09 03 04  23 02 41.008   -19 25 37.03  .65691 1.6565 167.7 19.8 .218  12
2026 09 03 05  23 02 39.267   -19 25 34.21  .65682 1.6564 167.7 19.8 .224  12
2026 09 03 06  23 02 37.525   -19 25 31.36  .65672 1.6563 167.7 19.8 .231  13
2026 09 03 07  23 02 35.783   -19 25 28.49  .65663 1.6562 167.7 19.8 .237  14
2026 09 03 08  23 02 34.038   -19 25 25.59  .65654 1.6561 167.7 19.8 .243  14
2026 09 03 09  23 02 32.293   -19 25 22.66  .65645 1.6560 167.7 19.8 .249  15
2026 09 03 10  23 02 30.547   -19 25 19.71  .65635 1.6559 167.7 19.8 .255  15
2026 09 03 11  23 02 28.800   -19 25 16.73  .65626 1.6558 167.7 19.8 .262  16
2026 09 03 12  23 02 27.052   -19 25 13.73  .65617 1.6557 167.7 19.8 .268  16
2026 09 03 13  23 02 25.302   -19 25 10.69  .65608 1.6556 167.7 19.8 .274  17
2026 09 03 14  23 02 23.552   -19 25 07.64  .65599 1.6555 167.7 19.8 .281  17
2026 09 03 15  23 02 21.800   -19 25 04.55  .65590 1.6554 167.7 19.8 .287  18
2026 09 03 16  23 02 20.048   -19 25 01.44  .65581 1.6553 167.7 19.8 .294  18
2026 09 03 17  23 02 18.295   -19 24 58.30  .65572 1.6552 167.7 19.8 .300  19
2026 09 03 18  23 02 16.540   -19 24 55.14  .65563 1.6551 167.7 19.8 .307  19
2026 09 03 19  23 02 14.785   -19 24 51.94  .65554 1.6550 167.7 19.8 .313  20
2026 09 03 20  23 02 13.028   -19 24 48.73  .65545 1.6549 167.7 19.8 .320  20
2026 09 03 21  23 02 11.271   -19 24 45.48  .65536 1.6548 167.7 19.8 .327  21
2026 09 03 22  23 02 09.512   -19 24 42.21  .65527 1.6547 167.7 19.8 .333  21
2026 09 03 23  23 02 07.753   -19 24 38.91  .65518 1.6546 167.7 19.8 .340  21
2026 09 04 00  23 02 05.992   -19 24 35.58  .65510 1.6545 167.6 19.8 .347  22
2026 09 04 01  23 02 04.231   -19 24 32.23  .65501 1.6544 167.6 19.8 .354  22
2026 09 04 02  23 02 02.469   -19 24 28.85  .65492 1.6543 167.6 19.8 .361  23
2026 09 04 03  23 02 00.706   -19 24 25.44  .65484 1.6542 167.6 19.8 .368  23
2026 09 04 04  23 01 58.941   -19 24 22.00  .65475 1.6541 167.6 19.8 .375  24
2026 09 04 05  23 01 57.176   -19 24 18.54  .65466 1.6540 167.6 19.8 .382  24
2026 09 04 06  23 01 55.410   -19 24 15.05  .65458 1.6539 167.6 19.8 .389  24
2026 09 04 07  23 01 53.643   -19 24 11.54  .65449 1.6538 167.6 19.8 .396  25
2026 09 04 08  23 01 51.876   -19 24 07.99  .65441 1.6537 167.6 19.8 .403  25
2026 09 04 09  23 01 50.107   -19 24 04.42  .65432 1.6536 167.6 19.8 .410  26
2026 09 04 10  23 01 48.337   -19 24 00.82  .65424 1.6535 167.6 19.8 .418  26
2026 09 04 11  23 01 46.567   -19 23 57.20  .65415 1.6534 167.6 19.8 .425  26
2026 09 04 12  23 01 44.796   -19 23 53.54  .65407 1.6533 167.6 19.8 .432  27
2026 09 04 13  23 01 43.024   -19 23 49.86  .65398 1.6531 167.6 19.8 .440  27
2026 09 04 14  23 01 41.251   -19 23 46.15  .65390 1.6530 167.6 19.8 .447  27
2026 09 04 15  23 01 39.477   -19 23 42.42  .65382 1.6529 167.6 19.8 .455  28
2026 09 04 16  23 01 37.702   -19 23 38.65  .65374 1.6528 167.6 19.8 .462  28
2026 09 04 17  23 01 35.927   -19 23 34.86  .65365 1.6527 167.6 19.8 .470  29
2026 09 04 18  23 01 34.150   -19 23 31.04  .65357 1.6526 167.6 19.8 .477  29
2026 09 04 19  23 01 32.373   -19 23 27.19  .65349 1.6525 167.5 19.8 .485  29
2026 09 04 20  23 01 30.595   -19 23 23.32  .65341 1.6524 167.5 19.8 .493  30